sat.trackr.live / text

‹ back to catalog

INMARSAT 5-F4

NORAD 42698 · 2017-025A

PAYLOAD ACTIVE UNKNOWN

§ Identity

Operator
Country
IM
Launch date
2017-05-15
Launch site
AFETR
Launch vehicle
Mass (kg)
RCS (m²)

Purposes: comms

External: N2YO · Heavens-Above · Gunter

§ Orbital elements

Epoch: 2026-09-19T18:57:02.430144Z

Period
1,436.11 min
Inclination
0.0225°
Eccentricity
0.0000530
Mean motion
1.00271106 rev/d
Perigee alt
35,784.6 km
Apogee alt
35,789.0 km
Semi-major
42,164.9 km
B*
0.0000e+0
RAAN
151.4123°
Arg perigee
20.9332°
Mean anomaly
167.1021°
Rev number
3,422

§ Raw data

INMARSAT 5-F41 42698U 17025A   26262.78961146  .00000000  00000+0  00000+0 0  99922 42698   0.0225 151.4123 0000530  20.9332 167.1021  1.00271106 34221

JSON: /api/v1/satellites/42698 · /tle

For live sub-satellite position, see the globe view (requires WebGL).

§ Visibility from observer

Set your observer location to see the next 7 days of passes ≥ 10°. The values pass through the URL so the page stays shareable.

No JS? Fill the form by hand. The geolocation button needs JavaScript.